Regional Weather Roundup
Issued by NWS

Home | Current Version | Previous Version | Graphics & Text | Print | Product List | Glossary On
Versions: 1 2 3 4 5 6 7 8 9 10 11 12 13 14 15 16 17 18 19 20 21 22 23 24 25 26 27 28 29 30 31 32 33 34 35 36 37 38 39 40 41 42 43 44 45 46 47 48 49 50
000
ASUS43 KOAX 220510
RWRNE

WEATHER ROUNDUP FOR NEBRASKA
NATIONAL WEATHER SERVICE OMAHA NE
1200 AM CDT MON MAY 22 2017

NOTES: SATELLITE DATA IS BEING USED TO AUGMENT CLOUD COVER ABOVE
       12000 FEET.
       "FAIR" INDICATES FEW OR NO CLOUDS BELOW 12,000 FEET WITH NO
       SIGNIFICANT WEATHER AND/OR OBSTRUCTIONS TO VISIBILITY.

  * THESE STATIONS DO NOT REPORT WEATHER SUCH AS RAIN...SNOW OR FOG.

NEZ001>004-019>022-054>056-220600-
NEBRASKA PANHANDLE

CITY           SKY/WX    TMP DP  RH WIND       PRES   REMARKS
SCOTTSBLUFF    CLEAR     46  32  58 SW7       30.19F
ALLIANCE       CLEAR     37  36  96 W8        30.16F WCI  31
CHADRON        CLEAR     45  42  89 SW6       30.17R
GORDON         FAIR      44  41  91 W10       30.13S
KIMBALL        CLOUDY    46  41  83 NW6       30.22F
SIDNEY         CLOUDY    44  40  85 W9        30.20F
$$

NEZ057>060-069>072-079>082-220600-
SOUTHWEST NEBRASKA

CITY           SKY/WX    TMP DP  RH WIND       PRES   REMARKS
NORTH PLATTE   CLOUDY    52  46  80 W7        30.12S
IMPERIAL       MOCLDY    54  46  74 NW6       30.16R
LEXINGTON      CLOUDY    55  49  82 W6        30.11S
MCCOOK         CLOUDY    55  47  74 W7        30.13R
OGALLALA       CLOUDY    47  45  93 W3        30.15F
$$

NEZ005>010-023>029-035>040-094-220600-
NORTH CENTRAL NEBRASKA

CITY           SKY/WX    TMP DP  RH WIND       PRES   REMARKS
VALENTINE      PTCLDY    50  42  74 W10       30.07S
AINSWORTH      PTCLDY    50  46  88 W9        30.07S
BROKEN BOW     CLEAR     51  46  83 SW7       30.08F
O`NEILL        CLOUDY    55  45  69 SW6       30.04F
ORD            CLOUDY    54  43  66 W3        30.06R
THEDFORD       PTCLDY    50  47  92 SW6       30.10F
$$

NEZ041-046>049-061>064-073>077-083>087-220600-
SOUTH CENTRAL NEBRASKA

CITY           SKY/WX    TMP DP  RH WIND       PRES   REMARKS
GRAND ISLAND   PTCLDY    53  45  74 S8        30.08F
AURORA         CLEAR     57  42  56 S8        30.08F
HASTINGS       CLEAR     58  44  60 S6        30.09F
HEBRON         PTCLDY    56  45  67 S8        30.09F
HOLDREGE       CLOUDY    58  43  55 S8        30.10S
KEARNEY *      CLOUDY    57  45  62 W3        30.10S
YORK           CLEAR     54  45  71 S7        30.08F
$$

NEZ011>018-030>034-042>045-220600-
NORTHEAST NEBRASKA

CITY           SKY/WX    TMP DP  RH WIND       PRES   REMARKS
NORFOLK        MOCLDY    54  40  59 S10       30.03F
ALBION         PTCLDY    49  43  78 SE3       30.05F
BLAIR          CLEAR     52  45  76 S5        30.07F
FREMONT        CLEAR     54  44  70 SE5       30.07F
TEKAMAH        CLEAR     51  46  83 S6        30.05F
WAYNE          CLOUDY    53  46  77 S10       30.03F
$$

NEZ050>053-065>068-078-088>093-220600-
SOUTHEAST NEBRASKA

CITY           SKY/WX    TMP DP  RH WIND       PRES   REMARKS
LINCOLN        CLEAR     54  46  74 S5        30.09F
OMAHA EPPLEY   CLEAR     51  45  79 SE7       30.08F
BEATRICE       CLEAR     55  47  73 CALM      30.10S
FALLS CITY     CLEAR     55  44  66 S6        30.10F
NEBRASKA CITY  CLEAR     55  40  58 S5        30.10F
PLATTSMOUTH    CLEAR     53  42  66 SE6       30.09F
$$

NEZ044-045-051>053-067-220600-
OMAHA AREA

CITY           SKY/WX    TMP DP  RH WIND       PRES   REMARKS
OMAHA EPPLEY   CLEAR     51  45  79 SE7       30.08F
BLAIR          CLEAR     52  45  76 S5        30.07F
FREMONT        CLEAR     54  44  70 SE5       30.07F
MILLARD        CLEAR     51  47  84 CALM      30.08F
OFFUTT AFB     CLEAR     55  45  67 VRB3      30.09F
PLATTSMOUTH    CLEAR     53  42  66 SE6       30.09F
WAHOO          FAIR      51  44  76 S6        30.07F
$$




USA.gov is the U.S. government's official web portal to all federal, state and local government web resources and services.